Location: *
(50.3194°N, 7.1067°E)
Time: 15:56:04
(UTC+00:00)

Cosmos 1624 Rocket - Pass Details

Date: 22 September 2019
Orbit: 757 x 784 km, 74.0° (Epoch: 22 October)

Event Time Altitude Azimuth Distance (km) Brightness Sun altitude
Rises 19:18:17 0° 209° (SSW) 3,205 7.3 -17.6°
Reaches altitude 10° 19:20:39 10° 211° (SSW) 2,283 6.5 -17.9°
Maximum altitude 19:25:49 71° 296° (WNW) 804 4.2 -18.7°
Drops below altitude 10° 19:31:02 10° 21° (NNE) 2,300 6.5 -19.4°
Sets 19:33:26 0° 23° (NNE) 3,232 7.3 -19.8°
